Location: Argonnex
(45.9500°N, 6.1333°E)
Time: 10:01:45
(UTC+00:00)

CZ-6A DEB - Pass Details

Date: 22 February 2024
Orbit: 827 x 907 km, 98.8° (Epoch: 12 April)

Event Time Altitude Azimuth Distance (km) Brightness Sun altitude
Rises 18:06:16 0° 213° (SSW) 3,524 ? -10.3°
Reaches altitude 10° 18:09:40 10° 233° (SW) 2,585 ? -10.9°
Maximum altitude 18:13:11 16° 271° (W) 2,158 ? -11.5°
Drops below altitude 10° 18:16:41 10° 309° (NW) 2,579 ? -12.1°
Sets 18:20:06 0° 330° (NNW) 3,512 ? -12.7°
